iso_date,epoch_date,Year,Hour,Min,DOY,POS_DOY,Lat,Lon,BP,Ts,Ta,has_bp,has_ts,has_ta,BuoyID,Buoy_Type,Buoy_Owner,Logistics,Hemisphere
2020-09-25T01:30:00Z,1600997400,2020,1,30,269.0625,269.0625,72.055,-152.198,1010.1,1.15,-999.0,yes,yes,no,300534060314430,BD2GI,AOML,SIQULIAQ,North
2020-09-25T01:59:57Z,1600999197,2020,2,0,269.0833,269.0833,72.055,-152.198,1010.0,1.14,-999.0,yes,yes,no,300534060314430,BD2GI,AOML,SIQULIAQ,North
2020-09-25T03:00:00Z,1601002800,2020,3,0,269.125,269.125,72.056,-152.201,1009.8,1.14,-999.0,yes,yes,no,300534060314430,BD2GI,AOML,SIQULIAQ,North
2020-09-25T04:00:02Z,1601006403,2020,4,0,269.1667,269.1667,72.057,-152.203,1009.5,1.14,-999.0,yes,yes,no,300534060314430,BD2GI,AOML,SIQULIAQ,North
2020-09-25T04:59:57Z,1601009997,2020,5,0,269.2083,269.2083,72.06,-152.204,1009.4,1.15,-999.0,yes,yes,no,300534060314430,BD2GI,AOML,SIQULIAQ,North
2020-09-25T06:00:00Z,1601013600,2020,6,0,269.25,269.25,72.063,-152.21,1009.3,1.17,-999.0,yes,yes,no,300534060314430,BD2GI,AOML,SIQULIAQ,North
2020-09-25T07:00:02Z,1601017203,2020,7,0,269.2917,269.2917,72.066,-152.211,1009.3,1.14,-999.0,yes,yes,no,300534060314430,BD2GI,AOML,SIQULIAQ,North
2020-09-25T07:59:57Z,1601020797,2020,8,0,269.3333,269.3333,72.068,-152.211,1009.4,1.16,-999.0,yes,yes,no,300534060314430,BD2GI,AOML,SIQULIAQ,North
2020-09-25T09:00:00Z,1601024400,2020,9,0,269.375,269.375,72.07,-152.214,1009.4,1.15,-999.0,yes,yes,no,300534060314430,BD2GI,AOML,SIQULIAQ,North
2020-09-25T10:00:02Z,1601028003,2020,10,0,269.4167,269.4167,72.073,-152.216,1009.2,1.14,-999.0,yes,yes,no,300534060314430,BD2GI,AOML,SIQULIAQ,North
2020-09-25T10:59:57Z,1601031597,2020,11,0,269.4583,269.4583,72.076,-152.217,1009.2,1.13,-999.0,yes,yes,no,300534060314430,BD2GI,AOML,SIQULIAQ,North
2020-09-25T12:00:00Z,1601035200,2020,12,0,269.5,269.5,72.077,-152.218,1009.1,1.09,-999.0,yes,yes,no,300534060314430,BD2GI,AOML,SIQULIAQ,North
2020-09-25T13:00:02Z,1601038803,2020,13,0,269.5417,269.5417,72.08,-152.216,1008.8,1.07,-999.0,yes,yes,no,300534060314430,BD2GI,AOML,SIQULIAQ,North
2020-09-25T13:59:57Z,1601042397,2020,14,0,269.5833,269.5833,72.081,-152.211,1008.7,1.06,-999.0,yes,yes,no,300534060314430,BD2GI,AOML,SIQULIAQ,North
2020-09-25T15:00:00Z,1601046000,2020,15,0,269.625,269.625,72.084,-152.206,1008.7,1.06,-999.0,yes,yes,no,300534060314430,BD2GI,AOML,SIQULIAQ,North
2020-09-25T16:00:02Z,1601049603,2020,16,0,269.6667,269.6667,72.086,-152.201,1008.6,1.04,-999.0,yes,yes,no,300534060314430,BD2GI,AOML,SIQULIAQ,North
2020-09-25T16:59:57Z,1601053197,2020,17,0,269.7083,269.7083,72.088,-152.196,1008.6,1.05,-999.0,yes,yes,no,300534060314430,BD2GI,AOML,SIQULIAQ,North
2020-09-25T18:00:00Z,1601056800,2020,18,0,269.75,269.75,72.09,-152.194,1008.8,1.06,-999.0,yes,yes,no,300534060314430,BD2GI,AOML,SIQULIAQ,North
2020-09-25T19:00:02Z,1601060403,2020,19,0,269.7917,269.7917,72.093,-152.194,1009.1,1.08,-999.0,yes,yes,no,300534060314430,BD2GI,AOML,SIQULIAQ,North
2020-09-25T19:59:57Z,1601063997,2020,20,0,269.8333,269.8333,72.097,-152.195,1009.4,1.09,-999.0,yes,yes,no,300534060314430,BD2GI,AOML,SIQULIAQ,North
2020-09-25T21:00:00Z,1601067600,2020,21,0,269.875,269.875,72.102,-152.196,1009.6,1.17,-999.0,yes,yes,no,300534060314430,BD2GI,AOML,SIQULIAQ,North
2020-09-25T22:00:02Z,1601071203,2020,22,0,269.9167,269.9167,72.106,-152.196,1009.7,1.16,-999.0,yes,yes,no,300534060314430,BD2GI,AOML,SIQULIAQ,North
2020-09-25T22:59:57Z,1601074797,2020,23,0,269.9583,269.9583,72.112,-152.196,1009.8,1.14,-999.0,yes,yes,no,300534060314430,BD2GI,AOML,SIQULIAQ,North
2020-09-26T00:00:00Z,1601078400,2020,0,0,270.0,270.0,72.118,-152.198,1010.0,1.13,-999.0,yes,yes,no,300534060314430,BD2GI,AOML,SIQULIAQ,North
2020-09-26T01:00:02Z,1601082003,2020,1,0,270.0417,270.0417,72.123,-152.201,1010.2,1.12,-999.0,yes,yes,no,300534060314430,BD2GI,AOML,SIQULIAQ,North
2020-09-26T01:59:57Z,1601085597,2020,2,0,270.0833,270.0833,72.129,-152.203,1010.4,1.09,-999.0,yes,yes,no,300534060314430,BD2GI,AOML,SIQULIAQ,North
2020-09-26T03:00:00Z,1601089200,2020,3,0,270.125,270.125,72.135,-152.205,1010.5,1.06,-999.0,yes,yes,no,300534060314430,BD2GI,AOML,SIQULIAQ,North
2020-09-26T04:00:02Z,1601092803,2020,4,0,270.1667,270.1667,72.14,-152.21,1010.7,1.02,-999.0,yes,yes,no,300534060314430,BD2GI,AOML,SIQULIAQ,North
2020-09-26T04:59:57Z,1601096397,2020,5,0,270.2083,270.2083,72.145,-152.218,1010.9,0.96,-999.0,yes,yes,no,300534060314430,BD2GI,AOML,SIQULIAQ,North
2020-09-26T06:00:00Z,1601100000,2020,6,0,270.25,270.25,72.15,-152.227,1011.2,0.96,-999.0,yes,yes,no,300534060314430,BD2GI,AOML,SIQULIAQ,North
2020-09-26T07:00:02Z,1601103603,2020,7,0,270.2917,270.2917,72.156,-152.237,1011.6,0.98,-999.0,yes,yes,no,300534060314430,BD2GI,AOML,SIQULIAQ,North
2020-09-26T07:59:57Z,1601107197,2020,8,0,270.3333,270.3333,72.162,-152.251,1011.8,0.98,-999.0,yes,yes,no,300534060314430,BD2GI,AOML,SIQULIAQ,North
2020-09-26T09:00:00Z,1601110800,2020,9,0,270.375,270.375,72.169,-152.263,1012.1,1.0,-999.0,yes,yes,no,300534060314430,BD2GI,AOML,SIQULIAQ,North
2020-09-26T10:00:02Z,1601114403,2020,10,0,270.4167,270.4167,72.177,-152.275,1012.3,1.0,-999.0,yes,yes,no,300534060314430,BD2GI,AOML,SIQULIAQ,North
2020-09-26T10:59:57Z,1601117997,2020,11,0,270.4583,270.4583,72.183,-152.288,1012.5,1.01,-999.0,yes,yes,no,300534060314430,BD2GI,AOML,SIQULIAQ,North
2020-09-26T12:00:00Z,1601121600,2020,12,0,270.5,270.5,72.19,-152.303,1012.6,1.03,-999.0,yes,yes,no,300534060314430,BD2GI,AOML,SIQULIAQ,North
2020-09-26T13:00:02Z,1601125203,2020,13,0,270.5417,270.5417,72.198,-152.32,1012.7,1.06,-999.0,yes,yes,no,300534060314430,BD2GI,AOML,SIQULIAQ,North
2020-09-26T13:59:57Z,1601128797,2020,14,0,270.5833,270.5833,72.206,-152.334,1012.7,1.04,-999.0,yes,yes,no,300534060314430,BD2GI,AOML,SIQULIAQ,North
2020-09-26T15:00:00Z,1601132400,2020,15,0,270.625,270.625,72.213,-152.346,1012.7,1.01,-999.0,yes,yes,no,300534060314430,BD2GI,AOML,SIQULIAQ,North
2020-09-26T16:00:02Z,1601136003,2020,16,0,270.6667,270.6667,72.218,-152.364,1013.0,0.96,-999.0,yes,yes,no,300534060314430,BD2GI,AOML,SIQULIAQ,North
2020-09-26T16:59:57Z,1601139597,2020,17,0,270.7083,270.7083,72.222,-152.385,1013.1,0.93,-999.0,yes,yes,no,300534060314430,BD2GI,AOML,SIQULIAQ,North
2020-09-26T18:00:00Z,1601143200,2020,18,0,270.75,270.75,72.227,-152.411,1013.3,0.91,-999.0,yes,yes,no,300534060314430,BD2GI,AOML,SIQULIAQ,North
2020-09-26T19:00:02Z,1601146803,2020,19,0,270.7917,270.7917,72.233,-152.437,1013.5,0.91,-999.0,yes,yes,no,300534060314430,BD2GI,AOML,SIQULIAQ,North
2020-09-26T19:59:57Z,1601150397,2020,20,0,270.8333,270.8333,72.239,-152.466,1014.0,0.93,-999.0,yes,yes,no,300534060314430,BD2GI,AOML,SIQULIAQ,North
2020-09-26T21:00:00Z,1601154000,2020,21,0,270.875,270.875,72.245,-152.495,1014.3,1.0,-999.0,yes,yes,no,300534060314430,BD2GI,AOML,SIQULIAQ,North
2020-09-26T22:00:02Z,1601157603,2020,22,0,270.9167,270.9167,72.25,-152.524,1014.4,0.99,-999.0,yes,yes,no,300534060314430,BD2GI,AOML,SIQULIAQ,North
2020-09-26T22:59:57Z,1601161197,2020,23,0,270.9583,270.9583,72.255,-152.554,1014.4,0.96,-999.0,yes,yes,no,300534060314430,BD2GI,AOML,SIQULIAQ,North
2020-09-27T00:00:00Z,1601164800,2020,0,0,271.0,271.0,72.26,-152.584,1014.6,0.93,-999.0,yes,yes,no,300534060314430,BD2GI,AOML,SIQULIAQ,North
2020-09-27T01:00:02Z,1601168403,2020,1,0,271.0417,271.0417,72.263,-152.613,1014.6,0.86,-999.0,yes,yes,no,300534060314430,BD2GI,AOML,SIQULIAQ,North
2020-09-27T01:59:57Z,1601171997,2020,2,0,271.0833,271.0833,72.266,-152.642,1014.8,0.84,-999.0,yes,yes,no,300534060314430,BD2GI,AOML,SIQULIAQ,North
2020-09-27T03:00:00Z,1601175600,2020,3,0,271.125,271.125,72.268,-152.669,1014.8,0.82,-999.0,yes,yes,no,300534060314430,BD2GI,AOML,SIQULIAQ,North
2020-09-27T04:00:02Z,1601179203,2020,4,0,271.1667,271.1667,72.269,-152.697,1014.9,0.8,-999.0,yes,yes,no,300534060314430,BD2GI,AOML,SIQULIAQ,North
2020-09-27T04:59:57Z,1601182797,2020,5,0,271.2083,271.2083,72.269,-152.726,1015.0,0.8,-999.0,yes,yes,no,300534060314430,BD2GI,AOML,SIQULIAQ,North
2020-09-27T06:00:00Z,1601186400,2020,6,0,271.25,271.25,72.269,-152.756,1015.1,0.78,-999.0,yes,yes,no,300534060314430,BD2GI,AOML,SIQULIAQ,North
2020-09-27T07:00:02Z,1601190003,2020,7,0,271.2917,271.2917,72.269,-152.788,1015.1,0.76,-999.0,yes,yes,no,300534060314430,BD2GI,AOML,SIQULIAQ,North
2020-09-27T07:59:57Z,1601193597,2020,8,0,271.3333,271.3333,72.268,-152.819,1015.0,0.75,-999.0,yes,yes,no,300534060314430,BD2GI,AOML,SIQULIAQ,North
2020-09-27T09:00:00Z,1601197200,2020,9,0,271.375,271.375,72.268,-152.849,1015.1,0.72,-999.0,yes,yes,no,300534060314430,BD2GI,AOML,SIQULIAQ,North
2020-09-27T10:00:02Z,1601200803,2020,10,0,271.4167,271.4167,72.267,-152.878,1015.2,0.73,-999.0,yes,yes,no,300534060314430,BD2GI,AOML,SIQULIAQ,North
2020-09-27T10:59:57Z,1601204397,2020,11,0,271.4583,271.4583,72.267,-152.907,1015.1,0.72,-999.0,yes,yes,no,300534060314430,BD2GI,AOML,SIQULIAQ,North
2020-09-27T12:00:00Z,1601208000,2020,12,0,271.5,271.5,72.266,-152.933,1014.8,0.73,-999.0,yes,yes,no,300534060314430,BD2GI,AOML,SIQULIAQ,North
2020-09-27T13:00:02Z,1601211603,2020,13,0,271.5417,271.5417,72.265,-152.959,1014.4,0.72,-999.0,yes,yes,no,300534060314430,BD2GI,AOML,SIQULIAQ,North
2020-09-27T13:59:57Z,1601215197,2020,14,0,271.5833,271.5833,72.263,-152.984,1014.4,0.72,-999.0,yes,yes,no,300534060314430,BD2GI,AOML,SIQULIAQ,North
2020-09-27T15:00:00Z,1601218800,2020,15,0,271.625,271.625,72.261,-153.007,1014.1,0.7,-999.0,yes,yes,no,300534060314430,BD2GI,AOML,SIQULIAQ,North
2020-09-27T16:00:02Z,1601222403,2020,16,0,271.6667,271.6667,72.257,-153.03,1013.8,0.75,-999.0,yes,yes,no,300534060314430,BD2GI,AOML,SIQULIAQ,North
2020-09-27T16:59:57Z,1601225997,2020,17,0,271.7083,271.7083,72.253,-153.055,1013.6,0.72,-999.0,yes,yes,no,300534060314430,BD2GI,AOML,SIQULIAQ,North
2020-09-27T18:00:00Z,1601229600,2020,18,0,271.75,271.75,72.25,-153.082,1013.3,0.68,-999.0,yes,yes,no,300534060314430,BD2GI,AOML,SIQULIAQ,North
2020-09-27T19:00:02Z,1601233203,2020,19,0,271.7917,271.7917,72.247,-153.11,1013.0,0.71,-999.0,yes,yes,no,300534060314430,BD2GI,AOML,SIQULIAQ,North
2020-09-27T19:59:57Z,1601236797,2020,20,0,271.8333,271.8333,72.243,-153.137,1012.8,0.67,-999.0,yes,yes,no,300534060314430,BD2GI,AOML,SIQULIAQ,North
2020-09-27T21:00:00Z,1601240400,2020,21,0,271.875,271.875,72.24,-153.162,1012.5,0.59,-999.0,yes,yes,no,300534060314430,BD2GI,AOML,SIQULIAQ,North
2020-09-27T22:00:02Z,1601244003,2020,22,0,271.9167,271.9167,72.237,-153.186,1012.1,0.61,-999.0,yes,yes,no,300534060314430,BD2GI,AOML,SIQULIAQ,North
2020-09-27T22:59:57Z,1601247597,2020,23,0,271.9583,271.9583,72.234,-153.211,1011.6,0.63,-999.0,yes,yes,no,300534060314430,BD2GI,AOML,SIQULIAQ,North
2020-09-28T00:00:00Z,1601251200,2020,0,0,272.0,272.0,72.231,-153.235,1011.2,0.58,-999.0,yes,yes,no,300534060314430,BD2GI,AOML,SIQULIAQ,North
2020-09-28T01:00:02Z,1601254803,2020,1,0,272.0417,272.0417,72.228,-153.258,1010.7,0.51,-999.0,yes,yes,no,300534060314430,BD2GI,AOML,SIQULIAQ,North
2020-09-28T01:59:57Z,1601258397,2020,2,0,272.0833,272.0833,72.223,-153.282,1010.1,0.48,-999.0,yes,yes,no,300534060314430,BD2GI,AOML,SIQULIAQ,North
2020-09-28T03:00:00Z,1601262000,2020,3,0,272.125,272.125,72.218,-153.306,1010.0,0.48,-999.0,yes,yes,no,300534060314430,BD2GI,AOML,SIQULIAQ,North
2020-09-28T04:00:02Z,1601265603,2020,4,0,272.1667,272.1667,72.212,-153.334,1009.9,0.5,-999.0,yes,yes,no,300534060314430,BD2GI,AOML,SIQULIAQ,North
2020-09-28T04:59:57Z,1601269197,2020,5,0,272.2083,272.2083,72.205,-153.36,1009.9,0.52,-999.0,yes,yes,no,300534060314430,BD2GI,AOML,SIQULIAQ,North
2020-09-28T06:00:00Z,1601272800,2020,6,0,272.25,272.25,72.2,-153.387,1009.8,0.54,-999.0,yes,yes,no,300534060314430,BD2GI,AOML,SIQULIAQ,North
2020-09-28T07:00:02Z,1601276403,2020,7,0,272.2917,272.2917,72.193,-153.413,1009.8,0.57,-999.0,yes,yes,no,300534060314430,BD2GI,AOML,SIQULIAQ,North
2020-09-28T07:59:57Z,1601279997,2020,8,0,272.3333,272.3333,72.186,-153.438,1009.8,0.63,-999.0,yes,yes,no,300534060314430,BD2GI,AOML,SIQULIAQ,North
2020-09-28T09:00:00Z,1601283600,2020,9,0,272.375,272.375,72.181,-153.458,1009.9,0.68,-999.0,yes,yes,no,300534060314430,BD2GI,AOML,SIQULIAQ,North
2020-09-28T10:00:02Z,1601287203,2020,10,0,272.4167,272.4167,72.175,-153.479,1009.9,0.69,-999.0,yes,yes,no,300534060314430,BD2GI,AOML,SIQULIAQ,North
2020-09-28T10:59:57Z,1601290797,2020,11,0,272.4583,272.4583,72.17,-153.498,1009.7,0.7,-999.0,yes,yes,no,300534060314430,BD2GI,AOML,SIQULIAQ,North
2020-09-28T12:00:00Z,1601294400,2020,12,0,272.5,272.5,72.164,-153.514,1009.6,0.72,-999.0,yes,yes,no,300534060314430,BD2GI,AOML,SIQULIAQ,North
2020-09-28T13:00:02Z,1601298003,2020,13,0,272.5417,272.5417,72.158,-153.528,1009.7,0.72,-999.0,yes,yes,no,300534060314430,BD2GI,AOML,SIQULIAQ,North
2020-09-28T13:59:57Z,1601301597,2020,14,0,272.5833,272.5833,72.152,-153.543,1009.9,0.59,-999.0,yes,yes,no,300534060314430,BD2GI,AOML,SIQULIAQ,North
2020-09-28T15:00:00Z,1601305200,2020,15,0,272.625,272.625,72.147,-153.556,1010.2,0.56,-999.0,yes,yes,no,300534060314430,BD2GI,AOML,SIQULIAQ,North
2020-09-28T16:00:02Z,1601308803,2020,16,0,272.6667,272.6667,72.142,-153.568,1010.5,0.56,-999.0,yes,yes,no,300534060314430,BD2GI,AOML,SIQULIAQ,North
2020-09-28T16:59:57Z,1601312397,2020,17,0,272.7083,272.7083,72.136,-153.582,1010.7,0.62,-999.0,yes,yes,no,300534060314430,BD2GI,AOML,SIQULIAQ,North
2020-09-28T18:00:00Z,1601316000,2020,18,0,272.75,272.75,72.131,-153.597,1011.2,0.69,-999.0,yes,yes,no,300534060314430,BD2GI,AOML,SIQULIAQ,North
2020-09-28T19:00:02Z,1601319603,2020,19,0,272.7917,272.7917,72.126,-153.614,1011.0,0.62,-999.0,yes,yes,no,300534060314430,BD2GI,AOML,SIQULIAQ,North
2020-09-28T19:59:57Z,1601323197,2020,20,0,272.8333,272.8333,72.122,-153.631,1010.5,0.55,-999.0,yes,yes,no,300534060314430,BD2GI,AOML,SIQULIAQ,North
2020-09-28T21:00:00Z,1601326800,2020,21,0,272.875,272.875,72.119,-153.646,1010.8,0.61,-999.0,yes,yes,no,300534060314430,BD2GI,AOML,SIQULIAQ,North
2020-09-28T22:00:02Z,1601330403,2020,22,0,272.9167,272.9167,72.116,-153.661,1010.8,0.59,-999.0,yes,yes,no,300534060314430,BD2GI,AOML,SIQULIAQ,North
2020-09-28T22:59:57Z,1601333997,2020,23,0,272.9583,272.9583,72.113,-153.675,1010.7,0.55,-999.0,yes,yes,no,300534060314430,BD2GI,AOML,SIQULIAQ,North
2020-09-29T00:00:00Z,1601337600,2020,0,0,273.0,273.0,72.111,-153.687,1010.4,0.5,-999.0,yes,yes,no,300534060314430,BD2GI,AOML,SIQULIAQ,North
2020-09-29T01:00:02Z,1601341203,2020,1,0,273.0417,273.0417,72.107,-153.698,1010.1,0.52,-999.0,yes,yes,no,300534060314430,BD2GI,AOML,SIQULIAQ,North
2020-09-29T01:59:57Z,1601344797,2020,2,0,273.0833,273.0833,72.104,-153.71,1009.7,0.52,-999.0,yes,yes,no,300534060314430,BD2GI,AOML,SIQULIAQ,North
2020-09-29T03:00:00Z,1601348400,2020,3,0,273.125,273.125,72.1,-153.722,1010.8,0.5,-999.0,yes,yes,no,300534060314430,BD2GI,AOML,SIQULIAQ,North
2020-09-29T04:00:02Z,1601352003,2020,4,0,273.1667,273.1667,72.097,-153.735,1012.6,0.5,-999.0,yes,yes,no,300534060314430,BD2GI,AOML,SIQULIAQ,North
2020-09-29T04:59:57Z,1601355597,2020,5,0,273.2083,273.2083,72.093,-153.749,1014.5,0.52,-999.0,yes,yes,no,300534060314430,BD2GI,AOML,SIQULIAQ,North
2020-09-29T06:00:00Z,1601359200,2020,6,0,273.25,273.25,72.091,-153.761,1015.1,0.52,-999.0,yes,yes,no,300534060314430,BD2GI,AOML,SIQULIAQ,North
2020-09-29T07:00:02Z,1601362803,2020,7,0,273.2917,273.2917,72.088,-153.773,1015.7,0.52,-999.0,yes,yes,no,300534060314430,BD2GI,AOML,SIQULIAQ,North
2020-09-29T07:59:57Z,1601366397,2020,8,0,273.3333,273.3333,72.086,-153.785,1016.2,0.52,-999.0,yes,yes,no,300534060314430,BD2GI,AOML,SIQULIAQ,North
2020-09-29T09:00:00Z,1601370000,2020,9,0,273.375,273.375,72.084,-153.795,1016.8,0.52,-999.0,yes,yes,no,300534060314430,BD2GI,AOML,SIQULIAQ,North
2020-09-29T10:00:02Z,1601373603,2020,10,0,273.4167,273.4167,72.083,-153.806,1017.2,0.52,-999.0,yes,yes,no,300534060314430,BD2GI,AOML,SIQULIAQ,North
2020-09-29T10:59:57Z,1601377197,2020,11,0,273.4583,273.4583,72.081,-153.813,1017.7,0.51,-999.0,yes,yes,no,300534060314430,BD2GI,AOML,SIQULIAQ,North
2020-09-29T12:00:00Z,1601380800,2020,12,0,273.5,273.5,72.08,-153.822,1017.9,0.52,-999.0,yes,yes,no,300534060314430,BD2GI,AOML,SIQULIAQ,North
2020-09-29T13:00:02Z,1601384403,2020,13,0,273.5417,273.5417,72.078,-153.831,1018.5,0.53,-999.0,yes,yes,no,300534060314430,BD2GI,AOML,SIQULIAQ,North
2020-09-29T13:59:57Z,1601387997,2020,14,0,273.5833,273.5833,72.077,-153.84,1019.0,0.54,-999.0,yes,yes,no,300534060314430,BD2GI,AOML,SIQULIAQ,North
2020-09-29T15:00:00Z,1601391600,2020,15,0,273.625,273.625,72.077,-153.848,1019.4,0.54,-999.0,yes,yes,no,300534060314430,BD2GI,AOML,SIQULIAQ,North
2020-09-29T16:00:02Z,1601395203,2020,16,0,273.6667,273.6667,72.076,-153.856,1020.0,0.53,-999.0,yes,yes,no,300534060314430,BD2GI,AOML,SIQULIAQ,North
2020-09-29T16:59:57Z,1601398797,2020,17,0,273.7083,273.7083,72.076,-153.864,1020.6,0.52,-999.0,yes,yes,no,300534060314430,BD2GI,AOML,SIQULIAQ,North
2020-09-29T18:00:00Z,1601402400,2020,18,0,273.75,273.75,72.076,-153.871,1021.1,0.5,-999.0,yes,yes,no,300534060314430,BD2GI,AOML,SIQULIAQ,North
2020-09-29T19:00:02Z,1601406003,2020,19,0,273.7917,273.7917,72.076,-153.876,1021.6,0.49,-999.0,yes,yes,no,300534060314430,BD2GI,AOML,SIQULIAQ,North
2020-09-29T19:59:57Z,1601409597,2020,20,0,273.8333,273.8333,72.076,-153.884,1022.0,0.51,-999.0,yes,yes,no,300534060314430,BD2GI,AOML,SIQULIAQ,North
2020-09-29T21:00:00Z,1601413200,2020,21,0,273.875,273.875,72.076,-153.89,1022.6,0.55,-999.0,yes,yes,no,300534060314430,BD2GI,AOML,SIQULIAQ,North
2020-09-29T22:00:02Z,1601416803,2020,22,0,273.9167,273.9167,72.076,-153.898,1023.3,0.56,-999.0,yes,yes,no,300534060314430,BD2GI,AOML,SIQULIAQ,North
2020-09-29T22:59:57Z,1601420397,2020,23,0,273.9583,273.9583,72.077,-153.903,1023.3,0.58,-999.0,yes,yes,no,300534060314430,BD2GI,AOML,SIQULIAQ,North
2020-09-30T00:00:00Z,1601424000,2020,0,0,274.0,274.0,72.077,-153.912,1023.4,0.62,-999.0,yes,yes,no,300534060314430,BD2GI,AOML,SIQULIAQ,North
2020-09-30T01:00:02Z,1601427603,2020,1,0,274.0417,274.0417,72.079,-153.921,1023.7,0.52,-999.0,yes,yes,no,300534060314430,BD2GI,AOML,SIQULIAQ,North
2020-09-30T01:59:57Z,1601431197,2020,2,0,274.0833,274.0833,72.081,-153.931,1023.7,0.52,-999.0,yes,yes,no,300534060314430,BD2GI,AOML,SIQULIAQ,North
2020-09-30T03:00:00Z,1601434800,2020,3,0,274.125,274.125,72.083,-153.941,1023.8,0.48,-999.0,yes,yes,no,300534060314430,BD2GI,AOML,SIQULIAQ,North
2020-09-30T04:00:02Z,1601438403,2020,4,0,274.1667,274.1667,72.085,-153.952,1024.0,0.46,-999.0,yes,yes,no,300534060314430,BD2GI,AOML,SIQULIAQ,North
2020-09-30T04:59:57Z,1601441997,2020,5,0,274.2083,274.2083,72.086,-153.963,1024.5,0.45,-999.0,yes,yes,no,300534060314430,BD2GI,AOML,SIQULIAQ,North
2020-09-30T06:00:00Z,1601445600,2020,6,0,274.25,274.25,72.088,-153.978,1024.7,0.43,-999.0,yes,yes,no,300534060314430,BD2GI,AOML,SIQULIAQ,North
2020-09-30T07:00:02Z,1601449203,2020,7,0,274.2917,274.2917,72.09,-153.996,1025.0,0.41,-999.0,yes,yes,no,300534060314430,BD2GI,AOML,SIQULIAQ,North
2020-09-30T07:59:57Z,1601452797,2020,8,0,274.3333,274.3333,72.092,-154.015,1025.2,0.41,-999.0,yes,yes,no,300534060314430,BD2GI,AOML,SIQULIAQ,North
2020-09-30T09:00:00Z,1601456400,2020,9,0,274.375,274.375,72.095,-154.036,1025.1,0.45,-999.0,yes,yes,no,300534060314430,BD2GI,AOML,SIQULIAQ,North
2020-09-30T10:00:02Z,1601460003,2020,10,0,274.4167,274.4167,72.097,-154.061,1024.9,0.42,-999.0,yes,yes,no,300534060314430,BD2GI,AOML,SIQULIAQ,North
2020-09-30T10:59:57Z,1601463597,2020,11,0,274.4583,274.4583,72.101,-154.087,1024.8,0.5,-999.0,yes,yes,no,300534060314430,BD2GI,AOML,SIQULIAQ,North
2020-09-30T12:00:00Z,1601467200,2020,12,0,274.5,274.5,72.104,-154.113,1024.5,0.55,-999.0,yes,yes,no,300534060314430,BD2GI,AOML,SIQULIAQ,North
2020-09-30T13:00:02Z,1601470803,2020,13,0,274.5417,274.5417,72.107,-154.143,1024.3,0.57,-999.0,yes,yes,no,300534060314430,BD2GI,AOML,SIQULIAQ,North
2020-09-30T13:59:57Z,1601474397,2020,14,0,274.5833,274.5833,72.11,-154.174,1024.0,0.59,-999.0,yes,yes,no,300534060314430,BD2GI,AOML,SIQULIAQ,North
2020-09-30T15:00:00Z,1601478000,2020,15,0,274.625,274.625,72.112,-154.206,1023.8,0.61,-999.0,yes,yes,no,300534060314430,BD2GI,AOML,SIQULIAQ,North
2020-09-30T16:00:02Z,1601481603,2020,16,0,274.6667,274.6667,72.114,-154.24,1023.8,0.71,-999.0,yes,yes,no,300534060314430,BD2GI,AOML,SIQULIAQ,North
2020-09-30T16:59:57Z,1601485197,2020,17,0,274.7083,274.7083,72.115,-154.277,1023.9,0.86,-999.0,yes,yes,no,300534060314430,BD2GI,AOML,SIQULIAQ,North
2020-09-30T18:00:00Z,1601488800,2020,18,0,274.75,274.75,72.116,-154.319,1023.8,0.94,-999.0,yes,yes,no,300534060314430,BD2GI,AOML,SIQULIAQ,North
2020-09-30T19:00:02Z,1601492403,2020,19,0,274.7917,274.7917,72.117,-154.362,1023.2,0.94,-999.0,yes,yes,no,300534060314430,BD2GI,AOML,SIQULIAQ,North
2020-09-30T19:59:57Z,1601495997,2020,20,0,274.8333,274.8333,72.118,-154.406,1022.6,1.08,-999.0,yes,yes,no,300534060314430,BD2GI,AOML,SIQULIAQ,North
2020-09-30T21:00:00Z,1601499600,2020,21,0,274.875,274.875,72.119,-154.448,1022.4,1.26,-999.0,yes,yes,no,300534060314430,BD2GI,AOML,SIQULIAQ,North
2020-09-30T22:00:02Z,1601503203,2020,22,0,274.9167,274.9167,72.118,-154.492,1021.7,1.3,-999.0,yes,yes,no,300534060314430,BD2GI,AOML,SIQULIAQ,North
2020-09-30T22:59:57Z,1601506797,2020,23,0,274.9583,274.9583,72.119,-154.538,1021.1,1.42,-999.0,yes,yes,no,300534060314430,BD2GI,AOML,SIQULIAQ,North
2020-10-01T00:00:00Z,1601510400,2020,0,0,275.0,275.0,72.115,-154.576,1020.1,1.41,-999.0,yes,yes,no,300534060314430,BD2GI,AOML,SIQULIAQ,North
2020-10-01T01:00:02Z,1601514003,2020,1,0,275.0417,275.0417,72.111,-154.621,1019.6,1.43,-999.0,yes,yes,no,300534060314430,BD2GI,AOML,SIQULIAQ,North
2020-10-01T01:59:57Z,1601517597,2020,2,0,275.0833,275.0833,72.106,-154.666,1019.0,1.44,-999.0,yes,yes,no,300534060314430,BD2GI,AOML,SIQULIAQ,North
2020-10-01T03:00:00Z,1601521200,2020,3,0,275.125,275.125,72.101,-154.709,1018.4,1.43,-999.0,yes,yes,no,300534060314430,BD2GI,AOML,SIQULIAQ,North
2020-10-01T04:00:02Z,1601524803,2020,4,0,275.1667,275.1667,72.096,-154.753,1017.8,1.46,-999.0,yes,yes,no,300534060314430,BD2GI,AOML,SIQULIAQ,North
2020-10-01T04:59:57Z,1601528397,2020,5,0,275.2083,275.2083,72.09,-154.794,1017.4,1.49,-999.0,yes,yes,no,300534060314430,BD2GI,AOML,SIQULIAQ,North
2020-10-01T06:00:00Z,1601532000,2020,6,0,275.25,275.25,72.084,-154.834,1016.6,1.54,-999.0,yes,yes,no,300534060314430,BD2GI,AOML,SIQULIAQ,North
2020-10-01T07:00:02Z,1601535603,2020,7,0,275.2917,275.2917,72.079,-154.867,1016.3,1.66,-999.0,yes,yes,no,300534060314430,BD2GI,AOML,SIQULIAQ,North
2020-10-01T07:59:57Z,1601539197,2020,8,0,275.3333,275.3333,72.072,-154.9,1016.0,1.68,-999.0,yes,yes,no,300534060314430,BD2GI,AOML,SIQULIAQ,North
2020-10-01T09:00:00Z,1601542800,2020,9,0,275.375,275.375,72.065,-154.931,1015.7,1.71,-999.0,yes,yes,no,300534060314430,BD2GI,AOML,SIQULIAQ,North
2020-10-01T10:00:02Z,1601546403,2020,10,0,275.4167,275.4167,72.058,-154.96,1015.2,1.75,-999.0,yes,yes,no,300534060314430,BD2GI,AOML,SIQULIAQ,North
2020-10-01T10:59:57Z,1601549997,2020,11,0,275.4583,275.4583,72.05,-154.988,1014.9,1.76,-999.0,yes,yes,no,300534060314430,BD2GI,AOML,SIQULIAQ,North
2020-10-01T12:00:00Z,1601553600,2020,12,0,275.5,275.5,72.043,-155.015,1014.4,1.77,-999.0,yes,yes,no,300534060314430,BD2GI,AOML,SIQULIAQ,North
2020-10-01T13:00:02Z,1601557203,2020,13,0,275.5417,275.5417,72.035,-155.042,1014.3,1.73,-999.0,yes,yes,no,300534060314430,BD2GI,AOML,SIQULIAQ,North
2020-10-01T13:59:57Z,1601560797,2020,14,0,275.5833,275.5833,72.027,-155.069,1014.2,1.66,-999.0,yes,yes,no,300534060314430,BD2GI,AOML,SIQULIAQ,North
2020-10-01T15:00:00Z,1601564400,2020,15,0,275.625,275.625,72.02,-155.095,1014.0,1.61,-999.0,yes,yes,no,300534060314430,BD2GI,AOML,SIQULIAQ,North
2020-10-01T16:00:02Z,1601568003,2020,16,0,275.6667,275.6667,72.014,-155.118,1014.2,1.51,-999.0,yes,yes,no,300534060314430,BD2GI,AOML,SIQULIAQ,North
2020-10-01T16:59:57Z,1601571597,2020,17,0,275.7083,275.7083,72.007,-155.141,1014.2,1.37,-999.0,yes,yes,no,300534060314430,BD2GI,AOML,SIQULIAQ,North
2020-10-01T18:00:00Z,1601575200,2020,18,0,275.75,275.75,72.001,-155.163,1014.1,1.35,-999.0,yes,yes,no,300534060314430,BD2GI,AOML,SIQULIAQ,North
2020-10-01T19:00:02Z,1601578803,2020,19,0,275.7917,275.7917,71.996,-155.183,1014.3,1.36,-999.0,yes,yes,no,300534060314430,BD2GI,AOML,SIQULIAQ,North